Tracking 29892 objects as of 21-Nov-2024
HD Live streaming from Space Station
objects crossing your sky now

NOAA 16 DEB

Track NOAA 16 DEB now!
10-day predictions


NORAD ID: 42361
Int'l Code: 2000-055RD
Perigee: 725.7 km
Apogee: 798.2 km
Inclination: 98.9 °
Period: 99.9 minutes
Semi major axis: 7132 km
RCS: Unknown
Launch date: September 21, 2000
Source: United States (US)
Launch site: AIR FORCE WESTERN TEST RANGE (AFWTR)

Note: This is SATELLITE DEBRIS
Your satellite tracking list
Your tracking list is empty




NASA's NSSDC Master Catalog

Two Line Element Set (TLE):
1 42361U 00055RD  24325.48761907  .00029791  00000-0  90825-2 0  9998
2 42361  98.9490  54.2128 0050836  93.1518 267.5488 14.41105148454279
Source of the keplerian elements: AFSPC